• In Russia
  • List of Countries
  • For 7 days
  • Water Temperature
  • Satellite Maps
  • Weather Map
  • Weather Widgets
  • user-avatar
    Login

    Hourly Weather Adelaide

    Today, 31 March, Friday

    Time Temperature Precipitation Wind Pressure Humidity
    00:00 +13°C° 0 mm 2 mps 764 mmHg 76%
    01:00 +12°C° 0 mm 1 mps 763 mmHg 78%
    02:00 +12°C° 0 mm 1 mps 763 mmHg 80%
    03:00 +10°C° 0 mm 0 mps 763 mmHg 83%
    04:00 +11°C° 0 mm 1 mps 763 mmHg 83%
    05:00 +11°C° 0 mm 1 mps 764 mmHg 83%
    06:00 +11°C° 0 mm 1 mps 764 mmHg 83%
    07:00 +14°C° 0 mm 1 mps 764 mmHg 74%
    08:00 +16°C° 0 mm 1 mps 764 mmHg 64%
    09:00 +19°C° 0 mm 1 mps 764 mmHg 54%
    10:00 +18°C° 0 mm 2 mps 764 mmHg 52%
    11:00 +19°C° 0 mm 2 mps 763 mmHg 51%
    12:00 +19°C° 0 mm 3 mps 763 mmHg 49%
    13:00 +19°C° 0 mm 3 mps 763 mmHg 49%
    14:00 +19°C° 0 mm 3 mps 762 mmHg 49%
    15:00 +19°C° 0 mm 4 mps 762 mmHg 49%
    16:00 +18°C° 0 mm 3 mps 762 mmHg 54%
    17:00 +17°C° 0 mm 3 mps 762 mmHg 59%
    18:00 +16°C° 0 mm 3 mps 762 mmHg 64%
    19:00 +16°C° 0 mm 3 mps 763 mmHg 66%
    20:00 +14°C° 0 mm 3 mps 763 mmHg 68%
    21:00 +14°C° 0 mm 3 mps 763 mmHg 71%
    22:00 +14°C° 0 mm 3 mps 763 mmHg 72%
    23:00 +14°C° 0 mm 3 mps 763 mmHg 74%

    Tomorrow, 1 April, Saturday

    Time Temperature Precipitation Wind Pressure Humidity
    00:00 +14°C° 0 mm 3 mps 763 mmHg 76%
    01:00 +14°C° 0 mm 3 mps 763 mmHg 78%
    02:00 +14°C° 0 mm 3 mps 763 mmHg 80%
    03:00 +14°C° 0 mm 3 mps 763 mmHg 82%
    04:00 +14°C° 0.1 mm 3 mps 763 mmHg 82%
    05:00 +14°C° 0.1 mm 4 mps 763 mmHg 83%
    06:00 +14°C° 0.1 mm 4 mps 764 mmHg 83%
    07:00 +15°C° 0 mm 4 mps 764 mmHg 76%
    08:00 +17°C° 0 mm 4 mps 765 mmHg 69%
    09:00 +17°C° 0 mm 5 mps 765 mmHg 62%
    10:00 +19°C° 0 mm 5 mps 765 mmHg 58%
    11:00 +19°C° 0 mm 5 mps 765 mmHg 53%
    12:00 +20°C° 0 mm 5 mps 765 mmHg 49%
    13:00 +19°C° 0 mm 5 mps 765 mmHg 49%
    14:00 +19°C° 0 mm 5 mps 765 mmHg 50%
    15:00 +19°C° 0 mm 5 mps 765 mmHg 50%
    16:00 +17°C° 0 mm 5 mps 765 mmHg 54%
    17:00 +17°C° 0 mm 4 mps 765 mmHg 58%
    18:00 +15°C° 0 mm 4 mps 766 mmHg 63%
    19:00 +14°C° 0 mm 4 mps 766 mmHg 65%
    20:00 +14°C° 0 mm 4 mps 767 mmHg 68%
    21:00 +13°C° 0 mm 3 mps 767 mmHg 71%
    22:00 +13°C° 0 mm 3 mps 767 mmHg 72%
    23:00 +13°C° 0 mm 3 mps 768 mmHg 74%

    Day after tomorrow, 2 April, Sunday

    Time Temperature Precipitation Wind Pressure Humidity
    00:00 +12°C° 0 mm 3 mps 768 mmHg 75%
    01:00 +12°C° 0 mm 3 mps 768 mmHg 76%
    02:00 +12°C° 0 mm 3 mps 768 mmHg 76%
    03:00 +12°C° 0 mm 3 mps 767 mmHg 77%
    04:00 +11°C° 0 mm 3 mps 768 mmHg 77%
    05:00 +11°C° 0 mm 3 mps 768 mmHg 77%
    06:00 +10°C° 0 mm 3 mps 769 mmHg 77%
    07:00 +12°C° 0 mm 3 mps 769 mmHg 68%
    08:00 +14°C° 0 mm 3 mps 770 mmHg 60%
    09:00 +16°C° 0 mm 3 mps 770 mmHg 52%
    10:00 +18°C° 0 mm 3 mps 770 mmHg 48%
    11:00 +19°C° 0 mm 3 mps 769 mmHg 44%
    12:00 +20°C° 0 mm 3 mps 769 mmHg 40%
    13:00 +20°C° 0 mm 3 mps 769 mmHg 40%
    14:00 +20°C° 0 mm 4 mps 768 mmHg 40%
    15:00 +20°C° 0 mm 4 mps 768 mmHg 40%
    16:00 +19°C° 0 mm 4 mps 768 mmHg 46%
    17:00 +18°C° 0 mm 4 mps 768 mmHg 52%
    18:00 +15°C° 0 mm 4 mps 768 mmHg 59%
    19:00 +15°C° 0 mm 4 mps 769 mmHg 62%
    20:00 +14°C° 0 mm 4 mps 769 mmHg 66%
    21:00 +14°C° 0 mm 4 mps 770 mmHg 69%
    22:00 +14°C° 0 mm 4 mps 769 mmHg 67%
    23:00 +13°C° 0 mm 4 mps 769 mmHg 66%

    3 April, Monday

    Time Temperature Precipitation Wind Pressure Humidity
    00:00 +13°C° 0 mm 4 mps 769 mmHg 64%
    01:00 +13°C° 0 mm 4 mps 769 mmHg 66%
    02:00 +12°C° 0 mm 3 mps 769 mmHg 68%
    03:00 +12°C° 0 mm 3 mps 769 mmHg 70%
    04:00 +11°C° 0 mm 3 mps 769 mmHg 72%
    05:00 +11°C° 0 mm 3 mps 769 mmHg 75%
    06:00 +11°C° 0 mm 3 mps 769 mmHg 77%
    07:00 +12°C° 0 mm 3 mps 770 mmHg 68%
    08:00 +14°C° 0 mm 3 mps 770 mmHg 59%
    09:00 +17°C° 0 mm 3 mps 770 mmHg 50%
    10:00 +19°C° 0 mm 2 mps 769 mmHg 44%
    11:00 +21°C° 0 mm 2 mps 769 mmHg 38%
    12:00 +24°C° 0 mm 2 mps 768 mmHg 31%
    13:00 +24°C° 0 mm 2 mps 768 mmHg 32%
    14:00 +24°C° 0 mm 3 mps 767 mmHg 32%
    15:00 +24°C° 0 mm 3 mps 766 mmHg 32%
    16:00 +21°C° 0 mm 3 mps 767 mmHg 38%
    17:00 +19°C° 0 mm 3 mps 767 mmHg 44%
    18:00 +18°C° 0 mm 4 mps 767 mmHg 49%
    19:00 +17°C° 0 mm 4 mps 767 mmHg 56%
    20:00 +15°C° 0 mm 4 mps 767 mmHg 63%
    21:00 +14°C° 0 mm 4 mps 767 mmHg 70%
    22:00 +14°C° 0 mm 3 mps 767 mmHg 72%
    23:00 +14°C° 0 mm 3 mps 767 mmHg 73%

    4 April, Tuesday

    Time Temperature Precipitation Wind Pressure Humidity
    00:00 +14°C° 0 mm 3 mps 767 mmHg 75%
    01:00 +13°C° 0 mm 3 mps 767 mmHg 72%
    02:00 +14°C° 0 mm 2 mps 766 mmHg 69%
    03:00 +14°C° 0 mm 2 mps 766 mmHg 67%
    04:00 +14°C° 0 mm 2 mps 766 mmHg 63%
    05:00 +13°C° 0 mm 2 mps 767 mmHg 60%
    06:00 +13°C° 0 mm 2 mps 767 mmHg 57%
    07:00 +16°C° 0 mm 2 mps 767 mmHg 49%
    08:00 +19°C° 0 mm 1 mps 767 mmHg 41%
    09:00 +22°C° 0 mm 1 mps 767 mmHg 32%
    10:00 +23°C° 0 mm 1 mps 767 mmHg 29%
    11:00 +25°C° 0 mm 1 mps 766 mmHg 26%
    12:00 +27°C° 0 mm 1 mps 766 mmHg 23%
    13:00 +26°C° 0 mm 2 mps 765 mmHg 24%
    14:00 +26°C° 0 mm 3 mps 765 mmHg 25%
    15:00 +26°C° 0 mm 3 mps 764 mmHg 26%
    16:00 +23°C° 0 mm 4 mps 764 mmHg 32%
    17:00 +21°C° 0 mm 4 mps 764 mmHg 37%
    18:00 +20°C° 0 mm 4 mps 764 mmHg 43%
    19:00 +19°C° 0 mm 4 mps 765 mmHg 48%
    20:00 +18°C° 0 mm 4 mps 765 mmHg 53%
    21:00 +18°C° 0 mm 4 mps 765 mmHg 59%
    22:00 +17°C° 0 mm 4 mps 765 mmHg 61%
    23:00 +17°C° 0 mm 4 mps 765 mmHg 63%

    5 April, Wednesday

    Time Temperature Precipitation Wind Pressure Humidity
    00:00 +17°C° 0 mm 4 mps 764 mmHg 66%
    01:00 +17°C° 0 mm 3 mps 764 mmHg 66%
    02:00 +16°C° 0 mm 3 mps 764 mmHg 66%
    03:00 +16°C° 0 mm 3 mps 764 mmHg 65%
    04:00 +14°C° 0 mm 3 mps 764 mmHg 65%
    05:00 +15°C° 0 mm 2 mps 764 mmHg 65%
    06:00 +14°C° 0 mm 2 mps 764 mmHg 64%
    07:00 +17°C° 0 mm 2 mps 764 mmHg 53%
    08:00 +21°C° 0 mm 1 mps 764 mmHg 42%
    09:00 +23°C° 0 mm 1 mps 764 mmHg 32%
    10:00 +25°C° 0 mm 1 mps 763 mmHg 29%
    11:00 +27°C° 0 mm 1 mps 763 mmHg 26%
    12:00 +29°C° 0 mm 1 mps 762 mmHg 23%
    13:00 +29°C° 0 mm 2 mps 761 mmHg 24%
    14:00 +28°C° 0 mm 2 mps 761 mmHg 24%
    15:00 +28°C° 0 mm 2 mps 760 mmHg 24%
    16:00 +26°C° 0 mm 3 mps 760 mmHg 29%
    17:00 +24°C° 0 mm 3 mps 761 mmHg 34%
    18:00 +21°C° 0 mm 3 mps 761 mmHg 39%
    19:00 +20°C° 0 mm 3 mps 761 mmHg 43%
    20:00 +20°C° 0 mm 3 mps 761 mmHg 47%
    21:00 +19°C° 0 mm 3 mps 761 mmHg 51%
    22:00 +18°C° 0 mm 3 mps 761 mmHg 53%
    23:00 +18°C° 0 mm 3 mps 761 mmHg 54%
    Show more